Iowa City, IA

9:02 PM CST on February 26, 2017 (GMT -0600)
Iowa City Municipal

Weather History for KIOW - December, 2013

Change the Weather History Date:

Wednesday, December 4, 2013

  Actual Average Record
Temperature  
Mean Temperature 39 °F 29 °F  
Max Temperature 53 °F 37 °F 71 °F (1998)
Min Temperature 24 °F 21 °F -3 °F (1991)
Degree Days  
Heating Degree Days 26 36  
Month to date heating degree days 105 140  
Since 1 July heating degree days 1473 1447  
Cooling Degree Days 0 0  
Month to date cooling degree days 0 0  
Year to date cooling degree days 1064 912  
Moisture  
Dew Point 42 °F    
Average Humidity 91    
Maximum Humidity 100    
Minimum Humidity 81    
Precipitation  
Precipitation 0.04 in 0.07 in 1.13 in (1973)
Month to date precipitation 0.06 0.28  
Year to date precipitation 34.48 35.04  
Sea Level Pressure  
Sea Level Pressure 29.60 in    
Wind  
Wind Speed 10 mph (South)    
Max Wind Speed 28 mph    
Max Gust Speed 41 mph    
Visibility 4 miles    
Events Fog , Rain    
T = Trace of Precipitation, MM = Missing Value Source: NWS Daily Summary

Daily Weather History Graph

Daily Weather History Graph

Search for Another Location

Airport or City:

Trip Planner

Search our weather history database for the weather conditions in past years. The results will help you decide how hot, cold, wet, or windy it might be!

Date:

Astronomy

Dec. 04, 2013 Rise Set
Actual Time 7:16 AM CST 4:36 PM CST
Civil Twilight 6:45 AM CST 5:07 PM CST
Nautical Twilight 6:11 AM CST 5:41 PM CST
Astronomical Twilight 5:37 AM CST 6:15 PM CST
Moon 8:44 AM CST (12/4) 6:47 PM CST (12/4)
Length of Visible Light 10h 21m
Length of Day
9h 19m
Waxing Crescent, 4% of the Moon is Illuminated
Dec 4
Waxing Crescent
Dec 9
First Quarter
Dec 17
Full
Dec 25
Last Quarter
Jan 1
New

Hourly Weather History & Observations

Time (CST) Temp. Windchill Dew Point Humidity Pressure Visibility Wind Dir Wind Speed Gust Speed Precip Events Conditions
12:52 AM 46.0 °F 44.8 °F 46.0 °F 100% 29.67 in 0.2 mi East 3.5 mph - N/A Fog Fog
1:52 AM 45.0 °F 42.6 °F 45.0 °F 100% 29.66 in 0.2 mi ESE 4.6 mph - N/A Fog Fog
2:52 AM 45.0 °F 43.5 °F 45.0 °F 100% 29.65 in 0.2 mi SE 3.5 mph - N/A Fog Fog
3:52 AM 44.1 °F 40.1 °F 44.1 °F 100% 29.63 in 0.2 mi SE 6.9 mph - N/A Fog Fog
4:52 AM 44.1 °F 40.8 °F 44.1 °F 100% 29.63 in 0.2 mi SE 5.8 mph - N/A Fog Fog
5:52 AM 45.0 °F 41.8 °F 45.0 °F 100% 29.62 in 0.2 mi ESE 5.8 mph - N/A Fog Fog
6:52 AM 45.0 °F 43.5 °F 45.0 °F 100% 29.62 in 0.2 mi SSE 3.5 mph - N/A Fog Fog
7:52 AM 45.0 °F 42.6 °F 45.0 °F 100% 29.62 in 0.2 mi SE 4.6 mph - N/A Fog Fog
8:52 AM 45.0 °F 41.8 °F 45.0 °F 100% 29.62 in 0.2 mi SE 5.8 mph - N/A Fog Fog
9:52 AM 46.9 °F - 46.9 °F 100% 29.59 in 0.2 mi ESE 6.9 mph - N/A Fog Fog
10:52 AM 46.9 °F - 46.9 °F 100% 29.58 in 0.2 mi SE 5.8 mph - N/A Fog Fog
11:52 AM 48.0 °F - 48.0 °F 100% 29.54 in 0.2 mi SE 4.6 mph - 0.01 in Fog , Rain Light Rain
12:10 PM 48.2 °F - 48.2 °F 100% 29.52 in 1.2 mi SE 5.8 mph - 0.00 in Rain Light Rain
12:22 PM 48.2 °F - 48.2 °F 100% 29.51 in 1.0 mi SE 5.8 mph - 0.01 in Rain Light Rain
12:32 PM 48.2 °F - 48.2 °F 100% 29.51 in 1.2 mi SSE 5.8 mph - 0.01 in   Overcast
12:39 PM 48.2 °F - 48.2 °F 100% 29.51 in 0.8 mi SSE 4.6 mph - 0.01 in   Overcast
12:52 PM 48.9 °F - 48.9 °F 100% 29.51 in 0.5 mi SSE 6.9 mph - 0.01 in Fog Fog
1:28 PM 50.0 °F - 50.0 °F 100% 29.47 in 1.2 mi SSE 5.8 mph - N/A   Overcast
1:41 PM 50.0 °F - 50.0 °F 100% 29.48 in 2.5 mi South 6.9 mph - N/A   Overcast
1:52 PM 51.1 °F - 50.0 °F 96% 29.48 in 2.5 mi SSE 6.9 mph - N/A   Overcast
2:01 PM 51.8 °F - 50.0 °F 94% 29.47 in 2.5 mi SSE 5.8 mph - N/A   Overcast
2:12 PM 51.8 °F - 51.8 °F 100% 29.47 in 3.0 mi South 5.8 mph - N/A   Overcast
2:52 PM 53.1 °F - 51.1 °F 93% 29.47 in 5.0 mi South 9.2 mph - N/A   Overcast
3:08 PM 51.8 °F - 50.0 °F 94% 29.48 in 5.0 mi South 8.1 mph - N/A   Overcast
3:14 PM 51.8 °F - 50.0 °F 94% 29.48 in 3.0 mi WSW 27.6 mph 41.4 mph 0.01 in Rain Light Rain
3:27 PM 46.4 °F 38.1 °F 44.6 °F 93% 29.51 in 6.0 mi West 24.2 mph 29.9 mph 0.01 in Rain Light Rain
3:37 PM 44.6 °F 35.9 °F 42.8 °F 93% 29.53 in 4.0 mi West 23.0 mph 28.8 mph 0.01 in   Overcast
3:52 PM 42.1 °F 33.6 °F 42.1 °F 100% 29.55 in 5.0 mi West 18.4 mph 28.8 mph 0.01 in   Overcast
4:50 PM 37.4 °F 28.2 °F 37.4 °F 100% 29.60 in 10.0 mi West 16.1 mph 24.2 mph 0.01 in   Overcast
4:52 PM 37.0 °F 28.1 °F 37.0 °F 100% 29.61 in 10.0 mi West 15.0 mph 24.2 mph 0.01 in   Overcast
5:23 PM 35.6 °F 25.5 °F 35.6 °F 100% 29.62 in 10.0 mi West 17.3 mph 27.6 mph N/A   Overcast
5:52 PM 34.0 °F 22.7 °F 34.0 °F 100% 29.66 in 10.0 mi West 19.6 mph 32.2 mph N/A   Overcast
6:52 PM 33.1 °F 23.9 °F 30.0 °F 89% 29.68 in 10.0 mi West 12.7 mph - N/A   Overcast
7:52 PM 30.0 °F 17.2 °F 26.1 °F 85% 29.73 in 10.0 mi West 20.7 mph 32.2 mph N/A   Overcast
8:52 PM 28.0 °F 14.9 °F 24.1 °F 85% 29.77 in 10.0 mi West 19.6 mph 29.9 mph N/A   Overcast
9:52 PM 26.1 °F 12.7 °F 21.9 °F 84% 29.81 in 10.0 mi West 18.4 mph 28.8 mph N/A   Overcast
10:24 PM 24.8 °F 10.3 °F 19.4 °F 80% 29.82 in 10.0 mi West 20.7 mph 26.5 mph N/A   Overcast
10:52 PM 25.0 °F 12.2 °F 19.9 °F 81% 29.82 in 10.0 mi West 16.1 mph 24.2 mph N/A   Overcast
11:52 PM 24.1 °F 9.0 °F 18.0 °F 77% 29.88 in 10.0 mi West 21.9 mph 29.9 mph N/A   Overcast